Year,Month,Day,Hour,Minute,Value (Times are PST for temperature in C)
2012,04,06,00,00,3.40
2012,04,06,00,01,3.40
2012,04,06,00,02,3.40
2012,04,06,00,03,3.40
2012,04,06,00,04,3.40
2012,04,06,00,05,3.40
2012,04,06,00,06,3.40
2012,04,06,00,07,3.30
2012,04,06,00,08,3.30
2012,04,06,00,09,3.30
2012,04,06,00,10,3.30
2012,04,06,00,11,3.30
2012,04,06,00,12,3.30
2012,04,06,00,13,3.20
2012,04,06,00,14,3.20
2012,04,06,00,15,3.20
2012,04,06,00,16,3.20
2012,04,06,00,17,3.20
2012,04,06,00,18,3.10
2012,04,06,00,19,3.10
2012,04,06,00,20,3.10
2012,04,06,00,21,3.10
2012,04,06,00,22,3.10
2012,04,06,00,23,3.00
2012,04,06,00,24,3.00
2012,04,06,00,25,3.00
2012,04,06,00,26,3.00
2012,04,06,00,27,2.90
2012,04,06,00,28,2.90
2012,04,06,00,29,2.90
2012,04,06,00,30,2.90
2012,04,06,00,31,2.90
2012,04,06,00,32,2.80
2012,04,06,00,33,2.80
2012,04,06,00,34,2.80
2012,04,06,00,35,2.80
2012,04,06,00,36,2.80
2012,04,06,00,37,2.80
2012,04,06,00,38,2.80
2012,04,06,00,39,2.80
2012,04,06,00,40,2.80
2012,04,06,00,41,2.70
2012,04,06,00,42,2.70
2012,04,06,00,43,2.70
2012,04,06,00,44,2.70
2012,04,06,00,45,2.70
2012,04,06,00,46,2.70
2012,04,06,00,47,2.70
2012,04,06,00,48,2.70
2012,04,06,00,49,2.70
2012,04,06,00,50,2.70
2012,04,06,00,51,2.70
2012,04,06,00,52,2.70
2012,04,06,00,53,2.70
2012,04,06,00,54,2.70
2012,04,06,00,55,2.70
2012,04,06,00,56,2.60
2012,04,06,00,57,2.60
2012,04,06,00,58,2.60
2012,04,06,00,59,2.60
2012,04,06,01,00,2.60
2012,04,06,01,01,2.60
2012,04,06,01,02,2.60
2012,04,06,01,03,2.50
2012,04,06,01,04,2.50
2012,04,06,01,05,2.50
2012,04,06,01,06,2.50
2012,04,06,01,07,2.50
2012,04,06,01,08,2.40
2012,04,06,01,09,2.40
2012,04,06,01,10,2.40
2012,04,06,01,11,2.40
2012,04,06,01,12,2.30
2012,04,06,01,13,2.30
2012,04,06,01,14,2.30
2012,04,06,01,15,2.30
2012,04,06,01,16,2.30
2012,04,06,01,17,2.20
2012,04,06,01,18,2.20
2012,04,06,01,19,2.20
2012,04,06,01,20,2.20
2012,04,06,01,21,2.20
2012,04,06,01,22,2.20
2012,04,06,01,23,2.20
2012,04,06,01,24,2.20
2012,04,06,01,25,2.20
2012,04,06,01,26,2.20
2012,04,06,01,27,2.20
2012,04,06,01,28,2.20
2012,04,06,01,29,2.20
2012,04,06,01,30,2.20
2012,04,06,01,31,2.20
2012,04,06,01,32,2.20
2012,04,06,01,33,2.20
2012,04,06,01,34,2.20
2012,04,06,01,35,2.20
2012,04,06,01,36,2.20
2012,04,06,01,37,2.20
2012,04,06,01,38,2.20
2012,04,06,01,39,2.20
2012,04,06,01,40,2.10
2012,04,06,01,41,2.10
2012,04,06,01,42,2.10
2012,04,06,01,43,2.10
2012,04,06,01,44,2.10
2012,04,06,01,45,2.10
2012,04,06,01,46,2.00
2012,04,06,01,47,2.00
2012,04,06,01,48,2.00
2012,04,06,01,49,2.00
2012,04,06,01,50,2.00
2012,04,06,01,51,2.00
2012,04,06,01,52,2.00
2012,04,06,01,53,1.90
2012,04,06,01,54,1.90
2012,04,06,01,55,1.90
2012,04,06,01,56,1.90
2012,04,06,01,57,1.90
2012,04,06,01,58,1.90
2012,04,06,01,59,1.90
2012,04,06,02,00,1.80
2012,04,06,02,01,1.80
2012,04,06,02,02,1.80
2012,04,06,02,03,1.80
2012,04,06,02,04,1.80
2012,04,06,02,05,1.80
2012,04,06,02,06,1.80
2012,04,06,02,07,1.80
2012,04,06,02,08,1.80
2012,04,06,02,09,1.80
2012,04,06,02,10,1.70
2012,04,06,02,11,1.70
2012,04,06,02,12,1.70
2012,04,06,02,13,1.70
2012,04,06,02,14,1.70
2012,04,06,02,15,1.70
2012,04,06,02,16,1.70
2012,04,06,02,17,1.70
2012,04,06,02,18,1.70
2012,04,06,02,19,1.70
2012,04,06,02,20,1.70
2012,04,06,02,21,1.70
2012,04,06,02,22,1.70
2012,04,06,02,23,1.70
2012,04,06,02,24,1.70
2012,04,06,02,25,1.70
2012,04,06,02,26,1.70
2012,04,06,02,27,1.60
2012,04,06,02,28,1.60
2012,04,06,02,29,1.60
2012,04,06,02,30,1.60
2012,04,06,02,31,1.60
2012,04,06,02,32,1.60
2012,04,06,02,33,1.60
2012,04,06,02,34,1.60
2012,04,06,02,35,1.50
2012,04,06,02,36,1.50
2012,04,06,02,37,1.50
2012,04,06,02,38,1.50
2012,04,06,02,39,1.50
2012,04,06,02,40,1.40
2012,04,06,02,41,1.40
2012,04,06,02,42,1.40
2012,04,06,02,43,1.40
2012,04,06,02,44,1.40
2012,04,06,02,45,1.40
2012,04,06,02,46,1.40
2012,04,06,02,47,1.40
2012,04,06,02,48,1.40
2012,04,06,02,49,1.40
2012,04,06,02,50,1.40
2012,04,06,02,51,1.40
2012,04,06,02,52,1.40
2012,04,06,02,53,1.40
2012,04,06,02,54,1.40
2012,04,06,02,55,1.30
2012,04,06,02,56,1.30
2012,04,06,02,57,1.30
2012,04,06,02,58,1.30
2012,04,06,02,59,1.30
2012,04,06,03,00,1.30
2012,04,06,03,01,1.30
2012,04,06,03,02,1.30
2012,04,06,03,03,1.30
2012,04,06,03,04,1.30
2012,04,06,03,05,1.20
2012,04,06,03,06,1.20
2012,04,06,03,07,1.20
2012,04,06,03,08,1.20
2012,04,06,03,09,1.20
2012,04,06,03,10,1.20
2012,04,06,03,11,1.20
2012,04,06,03,12,1.20
2012,04,06,03,13,1.20
2012,04,06,03,14,1.20
2012,04,06,03,15,1.20
2012,04,06,03,16,1.20
2012,04,06,03,17,1.20
2012,04,06,03,18,1.20
2012,04,06,03,19,1.20
2012,04,06,03,20,1.20
2012,04,06,03,21,1.20
2012,04,06,03,22,1.20
2012,04,06,03,23,1.20
2012,04,06,03,24,1.20
2012,04,06,03,25,1.20
2012,04,06,03,26,1.20
2012,04,06,03,27,1.20
2012,04,06,03,28,1.20
2012,04,06,03,29,1.20
2012,04,06,03,30,1.20
2012,04,06,03,31,1.20
2012,04,06,03,32,1.20
2012,04,06,03,33,1.20
2012,04,06,03,34,1.20
2012,04,06,03,35,1.20
2012,04,06,03,36,1.20
2012,04,06,03,37,1.20
2012,04,06,03,38,1.20
2012,04,06,03,39,1.30
2012,04,06,03,40,1.30
2012,04,06,03,41,1.30
2012,04,06,03,42,1.30
2012,04,06,03,43,1.30
2012,04,06,03,44,1.30
2012,04,06,03,45,1.30
2012,04,06,03,46,1.20
2012,04,06,03,47,1.20
2012,04,06,03,48,1.20
2012,04,06,03,49,1.20
2012,04,06,03,50,1.20
2012,04,06,03,51,1.20
2012,04,06,03,52,1.20
2012,04,06,03,53,1.20
2012,04,06,03,54,1.20
2012,04,06,03,55,1.20
2012,04,06,03,56,1.20
2012,04,06,03,57,1.10
2012,04,06,03,58,1.10
2012,04,06,03,59,1.10
2012,04,06,04,00,1.10
2012,04,06,04,01,1.10
2012,04,06,04,02,1.10
2012,04,06,04,03,1.10
2012,04,06,04,04,1.10
2012,04,06,04,05,1.10
2012,04,06,04,06,1.00
2012,04,06,04,07,1.00
2012,04,06,04,08,1.00
2012,04,06,04,09,1.00
2012,04,06,04,10,0.90
2012,04,06,04,11,0.90
2012,04,06,04,12,0.90
2012,04,06,04,13,0.90
2012,04,06,04,14,0.80
2012,04,06,04,15,0.80
2012,04,06,04,16,0.80
2012,04,06,04,17,0.80
2012,04,06,04,18,0.80
2012,04,06,04,19,0.70
2012,04,06,04,20,0.70
2012,04,06,04,21,0.70
2012,04,06,04,22,0.70
2012,04,06,04,23,0.70
2012,04,06,04,24,0.70
2012,04,06,04,25,0.70
2012,04,06,04,26,0.70
2012,04,06,04,27,0.70
2012,04,06,04,28,0.70
2012,04,06,04,29,0.60
2012,04,06,04,30,0.60
2012,04,06,04,31,0.60
2012,04,06,04,32,0.60
2012,04,06,04,33,0.60
2012,04,06,04,34,0.60
2012,04,06,04,35,0.60
2012,04,06,04,36,0.60
2012,04,06,04,37,0.60
2012,04,06,04,38,0.60
2012,04,06,04,39,0.60
2012,04,06,04,40,0.60
2012,04,06,04,41,0.60
2012,04,06,04,42,0.60
2012,04,06,04,43,0.60
2012,04,06,04,44,0.60
2012,04,06,04,45,0.60
2012,04,06,04,46,0.60
2012,04,06,04,47,0.50
2012,04,06,04,48,0.50
2012,04,06,04,49,0.50
2012,04,06,04,50,0.40
2012,04,06,04,51,0.40
2012,04,06,04,52,0.40
2012,04,06,04,53,0.40
2012,04,06,04,54,0.40
2012,04,06,04,55,0.30
2012,04,06,04,56,0.30
2012,04,06,04,57,0.30
2012,04,06,04,58,0.30
2012,04,06,04,59,0.30
2012,04,06,05,00,0.30
2012,04,06,05,01,0.40
2012,04,06,05,02,0.40
2012,04,06,05,03,0.30
2012,04,06,05,04,0.30
2012,04,06,05,05,0.40
2012,04,06,05,06,0.30
2012,04,06,05,07,0.30
2012,04,06,05,08,0.30
2012,04,06,05,09,0.30
2012,04,06,05,10,0.30
2012,04,06,05,11,0.30
2012,04,06,05,12,0.30
2012,04,06,05,13,0.30
2012,04,06,05,14,0.30
2012,04,06,05,15,0.30
2012,04,06,05,16,0.30
2012,04,06,05,17,0.30
2012,04,06,05,18,0.30
2012,04,06,05,19,0.30
2012,04,06,05,20,0.30
2012,04,06,05,21,0.30
2012,04,06,05,22,0.30
2012,04,06,05,23,0.30
2012,04,06,05,24,0.30
2012,04,06,05,25,0.30
2012,04,06,05,26,0.30
2012,04,06,05,27,0.20
2012,04,06,05,28,0.20
2012,04,06,05,29,0.20
2012,04,06,05,30,0.20
2012,04,06,05,31,0.20
2012,04,06,05,32,0.20
2012,04,06,05,33,0.20
2012,04,06,05,34,0.20
2012,04,06,05,35,0.20
2012,04,06,05,36,0.20
2012,04,06,05,37,0.20
2012,04,06,05,38,0.20
2012,04,06,05,39,0.20
2012,04,06,05,40,0.20
2012,04,06,05,41,0.10
2012,04,06,05,42,0.10
2012,04,06,05,43,0.10
2012,04,06,05,44,0.10
2012,04,06,05,45,0.10
2012,04,06,05,46,0.10
2012,04,06,05,47,0.10
2012,04,06,05,48,0.10
2012,04,06,05,49,0.10
2012,04,06,05,50,0.10
2012,04,06,05,51,0.10
2012,04,06,05,52,0.10
2012,04,06,05,53,0.10
2012,04,06,05,54,0.10
2012,04,06,05,55,0.10
2012,04,06,05,56,0.10
2012,04,06,05,57,0.10
2012,04,06,05,58,0.10
2012,04,06,05,59,0.10
2012,04,06,06,00,0.00
2012,04,06,06,01,0.00
2012,04,06,06,02,0.00
2012,04,06,06,03,0.00
2012,04,06,06,04,0.00
2012,04,06,06,05,0.00
2012,04,06,06,06,0.00
2012,04,06,06,07,0.00
2012,04,06,06,08,0.00
2012,04,06,06,09,0.00
2012,04,06,06,10,0.00
2012,04,06,06,11,0.00
2012,04,06,06,12,0.00
2012,04,06,06,13,0.00
2012,04,06,06,14,0.00
2012,04,06,06,15,0.00
2012,04,06,06,16,-0.10
2012,04,06,06,17,-0.10
2012,04,06,06,18,-0.10
2012,04,06,06,19,-0.10
2012,04,06,06,20,-0.10
2012,04,06,06,21,-0.10
2012,04,06,06,22,-0.10
2012,04,06,06,23,-0.10
2012,04,06,06,24,-0.10
2012,04,06,06,25,-0.10
2012,04,06,06,26,-0.10
2012,04,06,06,27,-0.10
2012,04,06,06,28,-0.10
2012,04,06,06,29,-0.10
2012,04,06,06,30,-0.10
2012,04,06,06,31,-0.10
2012,04,06,06,32,-0.10
2012,04,06,06,33,-0.10
2012,04,06,06,34,-0.10
2012,04,06,06,35,-0.10
2012,04,06,06,36,-0.10
2012,04,06,06,37,-0.10
2012,04,06,06,38,-0.10
2012,04,06,06,39,-0.10
2012,04,06,06,40,-0.20
2012,04,06,06,41,-0.20
2012,04,06,06,42,-0.20
2012,04,06,06,43,-0.20
2012,04,06,06,44,-0.20
2012,04,06,06,45,-0.20
2012,04,06,06,46,-0.20
2012,04,06,06,47,-0.20
2012,04,06,06,48,-0.20
2012,04,06,06,49,-0.20
2012,04,06,06,50,-0.20
2012,04,06,06,51,-0.20
2012,04,06,06,52,-0.20
2012,04,06,06,53,-0.20
2012,04,06,06,54,-0.20
2012,04,06,06,55,-0.20
2012,04,06,06,56,-0.20
2012,04,06,06,57,-0.20
2012,04,06,06,58,-0.20
2012,04,06,06,59,-0.20
2012,04,06,07,00,-0.10
2012,04,06,07,01,-0.10
2012,04,06,07,02,-0.10
2012,04,06,07,03,-0.10
2012,04,06,07,04,-0.10
2012,04,06,07,05,-0.10
2012,04,06,07,06,-0.10
2012,04,06,07,07,-0.10
2012,04,06,07,08,-0.10
2012,04,06,07,09,-0.10
2012,04,06,07,10,-0.10
2012,04,06,07,11,-0.10
2012,04,06,07,12,-0.10
2012,04,06,07,13,-0.10
2012,04,06,07,14,-0.10
2012,04,06,07,15,-0.10
2012,04,06,07,16,-0.10
2012,04,06,07,17,0.00
2012,04,06,07,18,0.00
2012,04,06,07,19,0.00
2012,04,06,07,20,0.00
2012,04,06,07,21,0.10
2012,04,06,07,22,0.10
2012,04,06,07,23,0.10
2012,04,06,07,24,0.20
2012,04,06,07,25,0.20
2012,04,06,07,26,0.20
2012,04,06,07,27,0.20
2012,04,06,07,28,0.30
2012,04,06,07,29,0.30
2012,04,06,07,30,0.30
2012,04,06,07,31,0.40
2012,04,06,07,32,0.40
2012,04,06,07,33,0.40
2012,04,06,07,34,0.50
2012,04,06,07,35,0.50
2012,04,06,07,36,0.60
2012,04,06,07,37,0.60
2012,04,06,07,38,0.70
2012,04,06,07,39,0.70
2012,04,06,07,40,0.80
2012,04,06,07,41,0.80
2012,04,06,07,42,0.90
2012,04,06,07,43,0.90
2012,04,06,07,44,1.00
2012,04,06,07,45,1.00
2012,04,06,07,46,1.10
2012,04,06,07,47,1.20
2012,04,06,07,48,1.20
2012,04,06,07,49,1.30
2012,04,06,07,50,1.30
2012,04,06,07,51,1.40
2012,04,06,07,52,1.50
2012,04,06,07,53,1.60
2012,04,06,07,54,1.60
2012,04,06,07,55,1.60
2012,04,06,07,56,1.70
2012,04,06,07,57,1.80
2012,04,06,07,58,1.90
2012,04,06,07,59,1.90
2012,04,06,08,00,2.00
2012,04,06,08,01,2.10
2012,04,06,08,02,2.10
2012,04,06,08,03,2.20
2012,04,06,08,04,2.20
2012,04,06,08,05,2.30
2012,04,06,08,06,2.40
2012,04,06,08,07,2.50
2012,04,06,08,08,2.60
2012,04,06,08,09,2.70
2012,04,06,08,10,2.80
2012,04,06,08,11,2.80
2012,04,06,08,12,2.90
2012,04,06,08,13,3.00
2012,04,06,08,14,3.10
2012,04,06,08,15,3.20
2012,04,06,08,16,3.30
2012,04,06,08,17,3.40
2012,04,06,08,18,3.50
2012,04,06,08,19,3.60
2012,04,06,08,20,3.70
2012,04,06,08,21,3.70
2012,04,06,08,22,3.80
2012,04,06,08,23,3.90
2012,04,06,08,24,4.00
2012,04,06,08,25,4.20
2012,04,06,08,26,4.20
2012,04,06,08,27,4.30
2012,04,06,08,28,4.40
2012,04,06,08,29,4.50
2012,04,06,08,30,4.60
2012,04,06,08,31,4.70
2012,04,06,08,32,4.80
2012,04,06,08,33,4.80
2012,04,06,08,34,4.90
2012,04,06,08,35,4.90
2012,04,06,08,36,5.00
2012,04,06,08,37,5.00
2012,04,06,08,38,5.10
2012,04,06,08,39,5.20
2012,04,06,08,40,5.20
2012,04,06,08,41,5.30
2012,04,06,08,42,5.40
2012,04,06,08,43,5.40
2012,04,06,08,44,5.40
2012,04,06,08,45,5.50
2012,04,06,08,46,5.60
2012,04,06,08,47,5.60
2012,04,06,08,48,5.60
2012,04,06,08,49,5.70
2012,04,06,08,50,5.70
2012,04,06,08,51,5.80
2012,04,06,08,52,5.80
2012,04,06,08,53,5.90
2012,04,06,08,54,5.90
2012,04,06,08,55,5.90
2012,04,06,08,56,5.90
2012,04,06,08,57,5.90
2012,04,06,08,58,6.00
2012,04,06,08,59,6.00
2012,04,06,09,00,6.10
2012,04,06,09,01,6.10
2012,04,06,09,02,6.20
2012,04,06,09,03,6.20
2012,04,06,09,04,6.20
2012,04,06,09,05,6.30
2012,04,06,09,06,6.30
2012,04,06,09,07,6.40
2012,04,06,09,08,6.40
2012,04,06,09,09,6.40
2012,04,06,09,10,6.50
2012,04,06,09,11,6.70
2012,04,06,09,12,6.80
2012,04,06,09,13,7.00
2012,04,06,09,14,7.10
2012,04,06,09,15,7.20
2012,04,06,09,16,7.30
2012,04,06,09,17,7.30
2012,04,06,09,18,7.40
2012,04,06,09,19,7.50
2012,04,06,09,20,7.60
2012,04,06,09,21,7.60
2012,04,06,09,22,7.60
2012,04,06,09,23,7.60
2012,04,06,09,24,7.60
2012,04,06,09,25,7.50
2012,04,06,09,26,7.50
2012,04,06,09,27,7.40
2012,04,06,09,28,7.40
2012,04,06,09,29,7.30
2012,04,06,09,30,7.30
2012,04,06,09,31,7.30
2012,04,06,09,32,7.20
2012,04,06,09,33,7.20
2012,04,06,09,34,7.20
2012,04,06,09,35,7.20
2012,04,06,09,36,7.20
2012,04,06,09,37,7.20
2012,04,06,09,38,7.20
2012,04,06,09,39,7.20
2012,04,06,09,40,7.20
2012,04,06,09,41,7.20
2012,04,06,09,42,7.20
2012,04,06,09,43,7.20
2012,04,06,09,44,7.20
2012,04,06,09,45,7.20
2012,04,06,09,46,7.20
2012,04,06,09,47,7.20
2012,04,06,09,48,7.20
2012,04,06,09,49,7.20
2012,04,06,09,50,7.20
2012,04,06,09,51,7.20
2012,04,06,09,52,7.20
2012,04,06,09,53,7.20
2012,04,06,09,54,7.20
2012,04,06,09,55,7.20
2012,04,06,09,56,7.20
2012,04,06,09,57,7.10
2012,04,06,09,58,7.10
2012,04,06,09,59,7.10
2012,04,06,10,00,7.10
2012,04,06,10,01,7.00
2012,04,06,10,02,7.00
2012,04,06,10,03,7.00
2012,04,06,10,04,7.00
2012,04,06,10,05,7.00
2012,04,06,10,06,6.90
2012,04,06,10,07,6.90
2012,04,06,10,08,6.90
2012,04,06,10,09,6.90
2012,04,06,10,10,6.90
2012,04,06,10,11,6.90
2012,04,06,10,12,6.90
2012,04,06,10,13,6.90
2012,04,06,10,14,6.90
2012,04,06,10,15,6.90
2012,04,06,10,16,6.90
2012,04,06,10,17,6.90
2012,04,06,10,18,7.00
2012,04,06,10,19,7.00
2012,04,06,10,20,6.90
2012,04,06,10,21,6.90
2012,04,06,10,22,6.90
2012,04,06,10,23,7.00
2012,04,06,10,24,7.00
2012,04,06,10,25,7.00
2012,04,06,10,26,7.00
2012,04,06,10,27,7.10
2012,04,06,10,28,7.10
2012,04,06,10,29,7.10
2012,04,06,10,30,7.10
2012,04,06,10,31,7.10
2012,04,06,10,32,7.10
2012,04,06,10,33,7.10
2012,04,06,10,34,7.10
2012,04,06,10,35,7.10
2012,04,06,10,36,7.10
2012,04,06,10,37,7.10
2012,04,06,10,38,7.10
2012,04,06,10,39,7.00
2012,04,06,10,40,7.00
2012,04,06,10,41,7.00
2012,04,06,10,42,7.00
2012,04,06,10,43,7.00
2012,04,06,10,44,7.00
2012,04,06,10,45,7.10
2012,04,06,10,46,7.10
2012,04,06,10,47,7.10
2012,04,06,10,48,7.10
2012,04,06,10,49,7.10
2012,04,06,10,50,7.10
2012,04,06,10,51,7.10
2012,04,06,10,52,7.10
2012,04,06,10,53,7.10
2012,04,06,10,54,7.10
2012,04,06,10,55,7.10
2012,04,06,10,56,7.20
2012,04,06,10,57,7.20
2012,04,06,10,58,7.20
2012,04,06,10,59,7.20
2012,04,06,11,00,7.20
2012,04,06,11,01,7.30
2012,04,06,11,02,7.30
2012,04,06,11,03,7.30
2012,04,06,11,04,7.30
2012,04,06,11,05,7.30
2012,04,06,11,06,7.30
2012,04,06,11,07,7.30
2012,04,06,11,08,7.30
2012,04,06,11,09,7.30
2012,04,06,11,10,7.30
2012,04,06,11,11,7.30
2012,04,06,11,12,7.30
2012,04,06,11,13,7.30
2012,04,06,11,14,7.30
2012,04,06,11,15,7.30
2012,04,06,11,16,7.30
2012,04,06,11,17,7.30
2012,04,06,11,18,7.30
2012,04,06,11,19,7.30
2012,04,06,11,20,7.20
2012,04,06,11,21,7.20
2012,04,06,11,22,7.20
2012,04,06,11,23,7.20
2012,04,06,11,24,7.20
2012,04,06,11,25,7.20
2012,04,06,11,26,7.20
2012,04,06,11,27,7.20
2012,04,06,11,28,7.20
2012,04,06,11,29,7.30
2012,04,06,11,30,7.30
2012,04,06,11,31,7.30
2012,04,06,11,32,7.30
2012,04,06,11,33,7.30
2012,04,06,11,34,7.30
2012,04,06,11,35,7.30
2012,04,06,11,36,7.30
2012,04,06,11,37,7.30
2012,04,06,11,38,7.30
2012,04,06,11,39,7.30
2012,04,06,11,40,7.40
2012,04,06,11,41,7.30
2012,04,06,11,42,7.30
2012,04,06,11,43,7.40
2012,04,06,11,44,7.40
2012,04,06,11,45,7.40
2012,04,06,11,46,7.40
2012,04,06,11,47,7.40
2012,04,06,11,48,7.40
2012,04,06,11,49,7.30
2012,04,06,11,50,7.30
2012,04,06,11,51,7.30
2012,04,06,11,52,7.20
2012,04,06,11,53,7.10
2012,04,06,11,54,7.10
2012,04,06,11,55,7.00
2012,04,06,11,56,6.90
2012,04,06,11,57,6.90
2012,04,06,11,58,6.80
2012,04,06,11,59,6.80
2012,04,06,12,00,6.70
2012,04,06,12,01,6.60
2012,04,06,12,02,6.50
2012,04,06,12,03,6.40
2012,04,06,12,04,6.30
2012,04,06,12,05,6.20
2012,04,06,12,06,6.20
2012,04,06,12,07,6.10
2012,04,06,12,08,6.10
2012,04,06,12,09,6.00
2012,04,06,12,10,6.00
2012,04,06,12,11,6.00
2012,04,06,12,12,5.90
2012,04,06,12,13,5.90
2012,04,06,12,14,5.90
2012,04,06,12,15,5.90
2012,04,06,12,16,5.90
2012,04,06,12,17,5.90
2012,04,06,12,18,5.90
2012,04,06,12,19,5.90
2012,04,06,12,20,6.00
2012,04,06,12,21,6.10
2012,04,06,12,22,6.20
2012,04,06,12,23,6.20
2012,04,06,12,24,6.20
2012,04,06,12,25,6.30
2012,04,06,12,26,6.30
2012,04,06,12,27,6.40
2012,04,06,12,28,6.60
2012,04,06,12,29,6.80
2012,04,06,12,30,6.90
2012,04,06,12,31,7.00
2012,04,06,12,32,7.10
2012,04,06,12,33,7.10
2012,04,06,12,34,7.20
2012,04,06,12,35,7.30
2012,04,06,12,36,7.40
2012,04,06,12,37,7.50
2012,04,06,12,38,7.60
2012,04,06,12,39,7.60
2012,04,06,12,40,7.70
2012,04,06,12,41,7.70
2012,04,06,12,42,7.80
2012,04,06,12,43,7.90
2012,04,06,12,44,8.00
2012,04,06,12,45,8.00
2012,04,06,12,46,8.00
2012,04,06,12,47,8.00
2012,04,06,12,48,8.00
2012,04,06,12,49,7.90
2012,04,06,12,50,7.90
2012,04,06,12,51,7.90
2012,04,06,12,52,7.90
2012,04,06,12,53,7.90
2012,04,06,12,54,7.90
2012,04,06,12,55,8.00
2012,04,06,12,56,8.00
2012,04,06,12,57,8.10
2012,04,06,12,58,8.10
2012,04,06,12,59,8.10
2012,04,06,13,00,8.20
2012,04,06,13,01,8.20
2012,04,06,13,02,8.10
2012,04,06,13,03,8.10
2012,04,06,13,04,8.10
2012,04,06,13,05,8.00
2012,04,06,13,06,8.00
2012,04,06,13,07,7.90
2012,04,06,13,08,7.80
2012,04,06,13,09,7.80
2012,04,06,13,10,7.70
2012,04,06,13,11,7.70
2012,04,06,13,12,7.70
2012,04,06,13,13,7.70
2012,04,06,13,14,7.70
2012,04,06,13,15,7.70
2012,04,06,13,16,7.80
2012,04,06,13,17,7.90
2012,04,06,13,18,8.10
2012,04,06,13,19,8.20
2012,04,06,13,20,8.30
2012,04,06,13,21,8.30
2012,04,06,13,22,8.30
2012,04,06,13,23,8.40
2012,04,06,13,24,8.40
2012,04,06,13,25,8.50
2012,04,06,13,26,8.60
2012,04,06,13,27,8.70
2012,04,06,13,28,8.80
2012,04,06,13,29,8.80
2012,04,06,13,30,8.90
2012,04,06,13,31,9.00
2012,04,06,13,32,9.00
2012,04,06,13,33,9.20
2012,04,06,13,34,9.20
2012,04,06,13,35,9.20
2012,04,06,13,36,9.10
2012,04,06,13,37,9.00
2012,04,06,13,38,9.00
2012,04,06,13,39,8.90
2012,04,06,13,40,8.90
2012,04,06,13,41,8.90
2012,04,06,13,42,8.90
2012,04,06,13,43,8.90
2012,04,06,13,44,9.00
2012,04,06,13,45,9.00
2012,04,06,13,46,9.10
2012,04,06,13,47,9.20
2012,04,06,13,48,9.20
2012,04,06,13,49,9.30
2012,04,06,13,50,9.30
2012,04,06,13,51,9.30
2012,04,06,13,52,9.30
2012,04,06,13,53,9.30
2012,04,06,13,54,9.40
2012,04,06,13,55,9.40
2012,04,06,13,56,9.40
2012,04,06,13,57,9.40
2012,04,06,13,58,9.40
2012,04,06,13,59,9.40
2012,04,06,14,00,9.30
2012,04,06,14,01,9.30
2012,04,06,14,02,9.20
2012,04,06,14,03,9.10
2012,04,06,14,04,9.00
2012,04,06,14,05,9.00
2012,04,06,14,06,8.90
2012,04,06,14,07,8.80
2012,04,06,14,08,8.80
2012,04,06,14,09,8.80
2012,04,06,14,10,8.80
2012,04,06,14,11,8.80
2012,04,06,14,12,8.90
2012,04,06,14,13,8.90
2012,04,06,14,14,9.00
2012,04,06,14,15,9.00
2012,04,06,14,16,9.10
2012,04,06,14,17,9.00
2012,04,06,14,18,9.00
2012,04,06,14,19,9.00
2012,04,06,14,20,9.00
2012,04,06,14,21,9.00
2012,04,06,14,22,9.00
2012,04,06,14,23,9.10
2012,04,06,14,24,9.20
2012,04,06,14,25,9.30
2012,04,06,14,26,9.40
2012,04,06,14,27,9.30
2012,04,06,14,28,9.10
2012,04,06,14,29,9.00
2012,04,06,14,30,8.80
2012,04,06,14,31,8.70
2012,04,06,14,32,8.60
2012,04,06,14,33,8.50
2012,04,06,14,34,8.40
2012,04,06,14,35,8.40
2012,04,06,14,36,8.40
2012,04,06,14,37,8.40
2012,04,06,14,38,8.40
2012,04,06,14,39,8.40
2012,04,06,14,40,8.40
2012,04,06,14,41,8.30
2012,04,06,14,42,8.30
2012,04,06,14,43,8.30
2012,04,06,14,44,8.40
2012,04,06,14,45,8.40
2012,04,06,14,46,8.40
2012,04,06,14,47,8.40
2012,04,06,14,48,8.40
2012,04,06,14,49,8.30
2012,04,06,14,50,8.30
2012,04,06,14,51,8.40
2012,04,06,14,52,8.40
2012,04,06,14,53,8.40
2012,04,06,14,54,8.40
2012,04,06,14,55,8.50
2012,04,06,14,56,8.50
2012,04,06,14,57,8.60
2012,04,06,14,58,8.70
2012,04,06,14,59,8.70
2012,04,06,15,00,8.80
2012,04,06,15,01,8.80
2012,04,06,15,02,8.80
2012,04,06,15,03,8.70
2012,04,06,15,04,8.70
2012,04,06,15,05,8.60
2012,04,06,15,06,8.50
2012,04,06,15,07,8.50
2012,04,06,15,08,8.40
2012,04,06,15,09,8.40
2012,04,06,15,10,8.40
2012,04,06,15,11,8.40
2012,04,06,15,12,8.40
2012,04,06,15,13,8.50
2012,04,06,15,14,8.60
2012,04,06,15,15,8.50
2012,04,06,15,16,8.50
2012,04,06,15,17,8.50
2012,04,06,15,18,8.50
2012,04,06,15,19,8.50
2012,04,06,15,20,8.40
2012,04,06,15,21,8.40
2012,04,06,15,22,8.30
2012,04,06,15,23,8.30
2012,04,06,15,24,8.30
2012,04,06,15,25,8.30
2012,04,06,15,26,8.30
2012,04,06,15,27,8.30
2012,04,06,15,28,8.40
2012,04,06,15,29,8.40
2012,04,06,15,30,8.40
2012,04,06,15,31,8.40
2012,04,06,15,32,8.50
2012,04,06,15,33,8.50
2012,04,06,15,34,8.60
2012,04,06,15,35,8.60
2012,04,06,15,36,8.70
2012,04,06,15,37,8.70
2012,04,06,15,38,8.70
2012,04,06,15,39,8.70
2012,04,06,15,40,8.60
2012,04,06,15,41,8.60
2012,04,06,15,42,8.60
2012,04,06,15,43,8.70
2012,04,06,15,44,8.70
2012,04,06,15,45,8.70
2012,04,06,15,46,8.70
2012,04,06,15,47,8.70
2012,04,06,15,48,8.70
2012,04,06,15,49,8.60
2012,04,06,15,50,8.60
2012,04,06,15,51,8.70
2012,04,06,15,52,8.70
2012,04,06,15,53,8.70
2012,04,06,15,54,8.70
2012,04,06,15,55,8.70
2012,04,06,15,56,8.70
2012,04,06,15,57,8.70
2012,04,06,15,58,8.70
2012,04,06,15,59,8.80
2012,04,06,16,00,8.80
2012,04,06,16,01,8.80
2012,04,06,16,02,8.90
2012,04,06,16,03,9.00
2012,04,06,16,04,9.10
2012,04,06,16,05,9.10
2012,04,06,16,06,9.10
2012,04,06,16,07,9.20
2012,04,06,16,08,9.20
2012,04,06,16,09,9.20
2012,04,06,16,10,9.20
2012,04,06,16,11,9.20
2012,04,06,16,12,9.30
2012,04,06,16,13,9.20
2012,04,06,16,14,9.20
2012,04,06,16,15,9.20
2012,04,06,16,16,9.20
2012,04,06,16,17,9.20
2012,04,06,16,18,9.30
2012,04,06,16,19,9.30
2012,04,06,16,20,9.30
2012,04,06,16,21,9.30
2012,04,06,16,22,9.20
2012,04,06,16,23,9.20
2012,04,06,16,24,9.20
2012,04,06,16,25,9.20
2012,04,06,16,26,9.20
2012,04,06,16,27,9.30
2012,04,06,16,28,9.20
2012,04,06,16,29,9.20
2012,04,06,16,30,9.10
2012,04,06,16,31,9.10
2012,04,06,16,32,9.00
2012,04,06,16,33,9.00
2012,04,06,16,34,9.00
2012,04,06,16,35,8.90
2012,04,06,16,36,8.90
2012,04,06,16,37,8.90
2012,04,06,16,38,8.90
2012,04,06,16,39,8.90
2012,04,06,16,40,8.90
2012,04,06,16,41,8.90
2012,04,06,16,42,8.90
2012,04,06,16,43,8.90
2012,04,06,16,44,8.90
2012,04,06,16,45,8.90
2012,04,06,16,46,8.90
2012,04,06,16,47,8.90
2012,04,06,16,48,8.80
2012,04,06,16,49,8.80
2012,04,06,16,50,8.70
2012,04,06,16,51,8.60
2012,04,06,16,52,8.50
2012,04,06,16,53,8.50
2012,04,06,16,54,8.40
2012,04,06,16,55,8.30
2012,04,06,16,56,8.30
2012,04,06,16,57,8.20
2012,04,06,16,58,8.10
2012,04,06,16,59,8.00
2012,04,06,17,00,7.90
2012,04,06,17,01,7.90
2012,04,06,17,02,7.80
2012,04,06,17,03,7.80
2012,04,06,17,04,7.80
2012,04,06,17,05,7.80
2012,04,06,17,06,7.90
2012,04,06,17,07,7.90
2012,04,06,17,08,7.90
2012,04,06,17,09,7.90
2012,04,06,17,10,7.90
2012,04,06,17,11,7.90
2012,04,06,17,12,7.90
2012,04,06,17,13,7.90
2012,04,06,17,14,7.90
2012,04,06,17,15,8.00
2012,04,06,17,16,8.00
2012,04,06,17,17,8.00
2012,04,06,17,18,8.00
2012,04,06,17,19,8.00
2012,04,06,17,20,8.00
2012,04,06,17,21,8.00
2012,04,06,17,22,8.00
2012,04,06,17,23,8.00
2012,04,06,17,24,8.00
2012,04,06,17,25,8.00
2012,04,06,17,26,8.10
2012,04,06,17,27,8.10
2012,04,06,17,28,8.10
2012,04,06,17,29,8.10
2012,04,06,17,30,8.10
2012,04,06,17,31,8.10
2012,04,06,17,32,8.10
2012,04,06,17,33,8.20
2012,04,06,17,34,8.20
2012,04,06,17,35,8.20
2012,04,06,17,36,8.20
2012,04,06,17,37,8.20
2012,04,06,17,38,8.20
2012,04,06,17,39,8.20
2012,04,06,17,40,8.20
2012,04,06,17,41,8.30
2012,04,06,17,42,8.30
2012,04,06,17,43,8.30
2012,04,06,17,44,8.30
2012,04,06,17,45,8.30
2012,04,06,17,46,8.30
2012,04,06,17,47,8.30
2012,04,06,17,48,8.30
2012,04,06,17,49,8.30
2012,04,06,17,50,8.30
2012,04,06,17,51,8.30
2012,04,06,17,52,8.30
2012,04,06,17,53,8.30
2012,04,06,17,54,8.30
2012,04,06,17,55,8.30
2012,04,06,17,56,8.30
2012,04,06,17,57,8.30
2012,04,06,17,58,8.30
2012,04,06,17,59,8.30
2012,04,06,18,00,8.30
2012,04,06,18,01,8.30
2012,04,06,18,02,8.30
2012,04,06,18,03,8.30